Regional Weather Roundup
Issued by NWS

Home | Current Version | Previous Version | Graphics & Text | Print | Product List | Glossary Off
Versions: 1 2 3 4 5 6 7 8 9 10 11 12 13 14 15 16 17 18 19 20 21 22 23 24 25 26 27 28 29 30 31 32 33 34 35 36 37 38 39 40 41 42 43 44 45 46 47 48 49 50

000
ASUS43 KMKX 270811
RWRWI

WISCONSIN REGIONAL WEATHER ROUNDUP
NATIONAL WEATHER SERVICE MILWAUKEE/SULLIVAN WI
300 AM CDT SAT MAY 27 2017

NOTE: "FAIR" INDICATES FEW OR NO CLOUDS BELOW 12,000 FEET WITH NO
SIGNIFICANT WEATHER AND/OR OBSTRUCTIONS TO VISIBILITY.

WIZ001-002-006>008-014>016-023>028-270900-
NORTHWEST WISCONSIN

CITY           SKY/WX    TMP DP  RH WIND       PRES   REMARKS
SUPERIOR ARPT  NOT AVBL
ASHLAND        CLEAR     52  51  97 SW6       29.79S
HAYWARD        FOG       48  46  93 CALM      29.83R VSB 1/4
SIREN          CLEAR     49  48  97 CALM      29.84S
CUMBERLAND     CLEAR     52  50  93 CALM      29.84S
RICE LAKE      FOG       53  52  97 CALM      29.85S VSB 1/4
CHETEK         CLEAR     54  54 100 CALM      29.84S FOG
LADYSMITH      CLEAR     57  55  94 CALM      29.85S
EAU CLAIRE     CLOUDY    56  55  97 CALM      29.83F
MENOMONIE      CLEAR     58  56  92 CALM      29.84F
NEW RICHMOND   CLEAR     53  46  77 CALM      29.85S
OSCEOLA        CLEAR     49  49 100 CALM      29.87S
$$

WIZ003>005-009-010-017-018-270900-
NORTH CENTRAL WISCONSIN

CITY           SKY/WX    TMP DP  RH WIND       PRES   REMARKS
MANITOWISH WTR CLOUDY    55  55 100 S5        29.83S
ARBOR VITAE    CLOUDY    58  56  91 S3        29.84R
WOODRUFF       CLOUDY    58  56  91 S3        29.84R
RHINELANDER    CLOUDY    58  54  86 SW8       29.86F
EAGLE RIVER    PTCLDY    53  53 100 CALM      29.85R
LAND O LAKES   CLEAR     55  54  96 S3        29.86S
PHILLIPS       PTCLDY    56  56 100 S3        29.83S
TOMAHAWK       RAIN      56  55  95 CALM      29.86S
MEDFORD        MOCLDY    58  54  87 S6        29.86S
MERRILL        RAIN      56  56 100 CALM      29.88S
$$

WIZ029-030-035-036-043>047-270900-
CENTRAL WISCONSIN

CITY           SKY/WX    TMP DP  RH WIND       PRES   REMARKS
WAUSAU         CLOUDY    56  53  90 CALM      29.86R
MOSINEE        PTCLDY    52  52 100 SW5       29.88S
MARSHFIELD     CLOUDY    55  52  89 SW6       29.86S
STEVENS POINT  CLEAR     52  52 100 CALM      29.88S FOG
WAUPACA        CLEAR     53  52  96 CALM      29.87F FOG
WAUTOMA        CLEAR     48  48 100 W3        29.88S
WISC RAPIDS    PTCLDY    51  51 100 CALM      29.89R FOG
CAMP DOUGLAS   PTCLDY    50  50 100 E6        29.87S FOG
$$

WIZ011>013-019>022-031-037>040-048>050-270900-
NORTHEAST WISCONSIN

CITY           SKY/WX    TMP DP  RH WIND       PRES   REMARKS
ANTIGO         PTCLDY    50  50 100 SW3       29.88R
SHAWANO        CLEAR     56  53  92 CALM      29.87F
OCONTO         PTCLDY    51  51  98 CALM      29.86S
STURGEON BAY   PTCLDY    50  49  96 CALM      29.88S
GREEN BAY      CLEAR     56  55  97 SW3       29.87F
MANITOWOC      CLEAR     49  48  97 CALM      29.89S
APPLETON       CLEAR     52  50  93 SW5       29.86F
CLINTONVILLE   CLEAR     52  52 100 CALM      29.87S FOG
OSHKOSH        CLEAR     51  49  92 CALM      29.87F
$$

WIZ032>034-041-042-053>061-270900-
SOUTHWEST WISCONSIN

CITY           SKY/WX    TMP DP  RH WIND       PRES   REMARKS
LA CROSSE      CLOUDY    60  58  92 S7        29.86F
SPARTA         CLOUDY    51  50  99 CALM      29.87F
VIROQUA        CLOUDY    56  55  97 SW5       29.89S
BOSCOBEL       FOG       53  52  96 CALM      29.88F VSB 1/4
PRAIRIE DU CHI CLEAR     54  52  95 CALM      29.88S
PLATTEVILLE    CLEAR     54  54 100 CALM      29.89R
$$

WIZ056-057-062-063-064-067-068-270900-
SOUTH CENTRAL WISCONSIN

CITY           SKY/WX    TMP DP  RH WIND       PRES   REMARKS
REEDSBURG      CLEAR     51  51 100 CALM      29.88R
BARABOO/DELLS  CLEAR     52  50  93 W3        29.88R FOG
LONE ROCK      FOG       52  51  97 CALM      29.88R VSB<1/4
MINERAL POINT  CLEAR     54  54 100 CALM      29.88S FOG
MADISON        FOG       49  48  97 CALM      29.87S VSB 1/4
MIDDLETON      CLOUDY    49  49 100 CALM      29.88S VSB 1/4
WATERTOWN      PTCLDY    48  48 100 CALM      29.88S FOG
MONROE         CLEAR     52  52 100 E5        29.88S
JANESVILLE     FOG       52  52 100 CALM      29.88S VSB 1/4
$$

WIZ051-052-058>065-066-070>072-270900-
SOUTHEAST WISCONSIN

CITY           SKY/WX    TMP DP  RH WIND       PRES   REMARKS
MILWAUKEE      CLOUDY    53  52  96 CALM      29.88S
WAUKESHA       FOG       48  48 100 CALM      29.89F VSB 3/4
MILWAUKEE/TIMM   N/A     54  52  94 CALM      29.88F FOG
RACINE         CLEAR     48  47  96 CALM      29.90S FOG
KENOSHA        CLOUDY    50  50 100 CALM      29.88S FOG
FOND DU LAC    CLEAR     51  48  89 S3        29.88F FOG
SHEBOYGAN      CLEAR     50  50 100 CALM      29.88S FOG
WEST BEND      FOG       48  48 100 CALM      29.88S VSB 3/4
JUNEAU         CLEAR     51  51  98 CALM      29.89F
$$

LSZ147-162-270900-
LAKE SUPERIOR

STATION/POSITION TIME  TEMP    WIND        PRES    WAVE
                       AIR SEA DIR/SP/G            HT/PER
                 (UTC) (F)     (DEG/KT/KT) (MB)    (FT/S)
W MID LAKE BUOY  0650   44 37  140/  6/  8 1008.7R   0
DEVILS ISLAND    0800   43     220/  7/  8 1009.1S
PORT WING        0540   44     190/  2/  3 1009.5
SAXON HARBOR     0730   61     190/  5/  8 1008.5R
$$

LMZ867-665-643>646-270900-
LAKE MICHIGAN

STATION/POSITION TIME  TEMP    WIND        PRES    WAVE
                       AIR SEA DIR/SP/G            HT/PER
                 (UTC) (F)     (DEG/KT/KT) (MB)    (FT/S)
CHAMBERS ISLAND  0740   54     140/  2/  4 1011.2S
N MID LAKE BUOY  0750   44 42  210/  4/  6 1013.2R   0
NORTHPORT PIER   0740   51     150/  5/  6 1011.9S
SISTER BAY       0721   53     140/  5/  6   N/A
KEWAUNEE LAKESHO 0748   48     150/  4/  5 1011.5F
SHEBOYGAN LAKESH 0800   53     230/  2/  2 1011.8S
PORT WASHINGTON  0740   50      50/  2/  2 1012.9S
ATWATER BUOY     0709   48     140/  2/  2 1012.1S
MILWAUKEE LAKESH 0750   51     150/  1/  1   N/A
S MID LAKE BUOY  0650   48 46   30/  6/  8 1011.7F   0
KENOSHA   LAKESH 0800   50      10/  3/  4 1011.9
$$

TC  - TEMPERATURE IN CELSIUS
VSB - VISIBILITY IN STATUTE MILES
WCI - WIND CHILL INDEX
HX  - HEAT INDEX





USA.gov is the U.S. government's official web portal to all federal, state and local government web resources and services.